Time,TemperatureF,DewpointF,PressureIn,WindDirection,WindDirectionDegrees,WindSpeedMPH,WindSpeedGustMPH,Humidity,HourlyPrecipIn,Conditions,Clouds,dailyrainin,SoftwareType,DateUTC
2013-06-26 00:01:00,57.0,47.0,-100.00,SW,236,4.0,5.0,69,0.00,,,-99.99,,2013-06-26 08:01:00,
2013-06-26 00:11:00,57.0,47.0,-100.00,SW,236,4.0,5.0,69,0.00,,,-99.99,,2013-06-26 08:11:00,
2013-06-26 00:22:00,57.0,47.0,-100.00,SW,236,4.0,5.0,69,0.00,,,-99.99,,2013-06-26 08:22:00,
2013-06-26 00:30:00,57.0,47.0,-100.00,North,351,2.0,3.0,69,0.00,,,-99.99,,2013-06-26 08:30:00,
2013-06-26 00:53:00,57.0,47.0,-100.00,North,351,2.0,3.0,69,0.00,,,-99.99,,2013-06-26 08:53:00,
2013-06-26 01:01:00,57.0,47.0,-100.00,North,351,2.0,3.0,69,0.00,,,-99.99,,2013-06-26 09:01:00,
2013-06-26 01:11:00,57.0,47.0,-100.00,North,351,2.0,3.0,69,0.00,,,-99.99,,2013-06-26 09:11:00,
2013-06-26 01:22:00,57.0,47.0,-100.00,North,351,2.0,3.0,69,0.00,,,-99.99,,2013-06-26 09:22:00,
2013-06-26 01:30:00,55.0,49.0,-100.00,ENE,68,6.0,8.0,82,0.00,,,-99.99,,2013-06-26 09:30:00,
2013-06-26 01:53:00,55.0,49.0,-100.00,ENE,68,6.0,8.0,82,0.00,,,-99.99,,2013-06-26 09:53:00,
2013-06-26 02:01:00,55.0,49.0,-100.00,ENE,68,6.0,8.0,82,0.00,,,-99.99,,2013-06-26 10:01:00,
2013-06-26 02:12:00,55.0,49.0,-100.00,ENE,68,6.0,8.0,82,0.00,,,-99.99,,2013-06-26 10:12:00,
2013-06-26 02:22:00,55.0,49.0,-100.00,ENE,68,6.0,8.0,82,0.00,,,-99.99,,2013-06-26 10:22:00,
2013-06-26 02:30:00,53.0,48.0,-100.00,NE,56,8.0,9.0,82,0.00,,,-99.99,,2013-06-26 10:30:00,
2013-06-26 02:53:00,53.0,48.0,-100.00,NE,56,8.0,9.0,82,0.00,,,-99.99,,2013-06-26 10:53:00,
2013-06-26 03:02:00,53.0,48.0,-100.00,NE,56,8.0,9.0,82,0.00,,,-99.99,,2013-06-26 11:02:00,
2013-06-26 03:11:00,53.0,48.0,-100.00,NE,56,8.0,9.0,82,0.00,,,-99.99,,2013-06-26 11:11:00,
2013-06-26 03:22:00,53.0,48.0,-100.00,NE,56,8.0,9.0,82,0.00,,,-99.99,,2013-06-26 11:22:00,
2013-06-26 03:30:00,53.0,49.0,-100.00,ENE,61,9.0,10.0,88,0.00,,,-99.99,,2013-06-26 11:30:00,
2013-06-26 03:52:00,53.0,49.0,-100.00,ENE,61,9.0,10.0,88,0.00,,,-99.99,,2013-06-26 11:52:00,
2013-06-26 04:02:00,53.0,49.0,-100.00,ENE,61,9.0,10.0,88,0.00,,,-99.99,,2013-06-26 12:02:00,
2013-06-26 04:11:00,53.0,49.0,-100.00,ENE,61,9.0,10.0,88,0.00,,,-99.99,,2013-06-26 12:11:00,
2013-06-26 04:22:00,53.0,49.0,-100.00,ENE,61,9.0,10.0,88,0.00,,,-99.99,,2013-06-26 12:22:00,
2013-06-26 04:30:00,52.0,50.0,-100.00,ENE,57,8.0,11.0,93,0.00,,,-99.99,,2013-06-26 12:30:00,
2013-06-26 04:52:00,52.0,50.0,-100.00,ENE,57,8.0,11.0,93,0.00,,,-99.99,,2013-06-26 12:52:00,
2013-06-26 05:02:00,52.0,50.0,-100.00,ENE,57,8.0,11.0,93,0.00,,,-99.99,,2013-06-26 13:02:00,
2013-06-26 05:11:00,52.0,50.0,-100.00,ENE,57,8.0,11.0,93,0.00,,,-99.99,,2013-06-26 13:11:00,
2013-06-26 05:22:00,52.0,50.0,-100.00,ENE,57,8.0,11.0,93,0.00,,,-99.99,,2013-06-26 13:22:00,
2013-06-26 05:30:00,53.0,49.0,-100.00,ENE,68,7.0,8.0,86,0.00,,,-99.99,,2013-06-26 13:30:00,
2013-06-26 05:53:00,53.0,49.0,-100.00,ENE,68,7.0,8.0,86,0.00,,,-99.99,,2013-06-26 13:53:00,
2013-06-26 06:02:00,53.0,49.0,-100.00,ENE,68,7.0,8.0,86,0.00,,,-99.99,,2013-06-26 14:02:00,
2013-06-26 06:11:00,53.0,49.0,-100.00,ENE,68,7.0,8.0,86,0.00,,,-99.99,,2013-06-26 14:11:00,
2013-06-26 06:23:00,53.0,49.0,-100.00,ENE,68,7.0,8.0,86,0.00,,,-99.99,,2013-06-26 14:23:00,
2013-06-26 06:30:00,52.0,49.0,-100.00,ENE,78,4.0,6.0,88,0.00,,,-99.99,,2013-06-26 14:30:00,
2013-06-26 06:53:00,52.0,49.0,-100.00,ENE,78,4.0,6.0,88,0.00,,,-99.99,,2013-06-26 14:53:00,
2013-06-26 07:02:00,52.0,49.0,-100.00,ENE,78,4.0,6.0,88,0.00,,,-99.99,,2013-06-26 15:02:00,
2013-06-26 07:11:00,52.0,49.0,-100.00,ENE,78,4.0,6.0,88,0.00,,,-99.99,,2013-06-26 15:11:00,
2013-06-26 07:22:00,52.0,49.0,-100.00,ENE,78,4.0,6.0,88,0.00,,,-99.99,,2013-06-26 15:22:00,
2013-06-26 07:30:00,53.0,47.0,-100.00,East,85,5.0,7.0,81,0.00,,,-99.99,,2013-06-26 15:30:00,
2013-06-26 07:53:00,53.0,47.0,-100.00,East,85,5.0,7.0,81,0.00,,,-99.99,,2013-06-26 15:53:00,
2013-06-26 08:01:00,53.0,47.0,-100.00,East,85,5.0,7.0,81,0.00,,,-99.99,,2013-06-26 16:01:00,
2013-06-26 08:11:00,53.0,47.0,-100.00,East,85,5.0,7.0,81,0.00,,,-99.99,,2013-06-26 16:11:00,
2013-06-26 08:22:00,53.0,47.0,-100.00,East,85,5.0,7.0,81,0.00,,,-99.99,,2013-06-26 16:22:00,
2013-06-26 08:52:00,53.0,49.0,-100.00,North,9,3.0,4.0,85,0.00,,,-99.99,,2013-06-26 16:52:00,
2013-06-26 09:01:00,53.0,49.0,-100.00,North,9,3.0,4.0,85,0.00,,,-99.99,,2013-06-26 17:01:00,
2013-06-26 09:11:00,53.0,49.0,-100.00,North,9,3.0,4.0,85,0.00,,,-99.99,,2013-06-26 17:11:00,
2013-06-26 10:52:00,58.0,50.0,-100.00,NNE,26,3.0,4.0,74,0.00,,,-99.99,,2013-06-26 18:52:00,
2013-06-26 11:30:00,62.0,51.0,-100.00,West,268,5.0,8.0,67,0.00,,,-99.99,,2013-06-26 19:30:00,
2013-06-26 11:52:00,62.0,51.0,-100.00,West,268,5.0,8.0,67,0.00,,,-99.99,,2013-06-26 19:52:00,
2013-06-26 12:01:00,62.0,51.0,-100.00,West,268,5.0,8.0,67,0.00,,,-99.99,,2013-06-26 20:01:00,
2013-06-26 12:12:00,62.0,51.0,-100.00,West,268,5.0,8.0,67,0.00,,,-99.99,,2013-06-26 20:12:00,
2013-06-26 12:22:00,62.0,51.0,-100.00,West,268,5.0,8.0,67,0.00,,,-99.99,,2013-06-26 20:22:00,
2013-06-26 14:21:00,57.0,49.0,-100.00,WSW,251,11.0,13.0,73,0.00,,,-99.99,,2013-06-26 22:21:00,
2013-06-26 15:53:00,55.0,50.0,-100.00,WSW,255,10.0,15.0,83,0.00,,,-99.99,,2013-06-26 23:53:00,
2013-06-26 16:01:00,55.0,50.0,-100.00,WSW,255,10.0,15.0,83,0.00,,,-99.99,,2013-06-27 00:01:00,
2013-06-26 16:11:00,55.0,50.0,-100.00,WSW,255,10.0,15.0,83,0.00,,,-99.99,,2013-06-27 00:11:00,
2013-06-26 16:22:00,55.0,50.0,-100.00,WSW,255,10.0,15.0,83,0.00,,,-99.99,,2013-06-27 00:22:00,
2013-06-26 16:30:00,55.0,49.0,-100.00,West,274,9.0,15.0,80,0.00,,,-99.99,,2013-06-27 00:30:00,
2013-06-26 16:53:00,55.0,49.0,-100.00,West,274,9.0,15.0,80,0.00,,,-99.99,,2013-06-27 00:53:00,
2013-06-26 17:01:00,55.0,49.0,-100.00,West,274,9.0,15.0,80,0.00,,,-99.99,,2013-06-27 01:01:00,
2013-06-26 17:11:00,55.0,49.0,-100.00,West,274,9.0,15.0,80,0.00,,,-99.99,,2013-06-27 01:11:00,
2013-06-26 17:21:00,55.0,49.0,-100.00,West,274,9.0,15.0,80,0.00,,,-99.99,,2013-06-27 01:21:00,
2013-06-26 17:30:00,59.0,50.0,-100.00,WNW,292,8.0,13.0,71,0.02,,,-99.99,,2013-06-27 01:30:00,
2013-06-26 17:53:00,59.0,50.0,-100.00,WNW,292,8.0,13.0,71,0.02,,,-99.99,,2013-06-27 01:53:00,
2013-06-26 18:01:00,59.0,50.0,-100.00,WNW,292,8.0,13.0,71,0.02,,,-99.99,,2013-06-27 02:01:00,
2013-06-26 18:11:00,59.0,50.0,-100.00,WNW,292,8.0,13.0,71,0.02,,,-99.99,,2013-06-27 02:11:00,
2013-06-26 18:22:00,59.0,50.0,-100.00,WNW,292,8.0,13.0,71,0.02,,,-99.99,,2013-06-27 02:22:00,
2013-06-26 18:30:00,57.0,51.0,-100.00,ENE,75,7.0,9.0,80,0.00,,,-99.99,,2013-06-27 02:30:00,
2013-06-26 18:52:00,57.0,51.0,-100.00,ENE,75,7.0,9.0,80,0.00,,,-99.99,,2013-06-27 02:52:00,
2013-06-26 19:02:00,57.0,51.0,-100.00,ENE,75,7.0,9.0,80,0.00,,,-99.99,,2013-06-27 03:02:00,
2013-06-26 19:11:00,57.0,51.0,-100.00,ENE,75,7.0,9.0,80,0.00,,,-99.99,,2013-06-27 03:11:00,
2013-06-26 19:21:00,57.0,51.0,-100.00,ENE,75,7.0,9.0,80,0.00,,,-99.99,,2013-06-27 03:21:00,
2013-06-26 19:52:00,56.0,51.0,-100.00,ESE,116,5.0,5.0,85,0.00,,,-99.99,,2013-06-27 03:52:00,
2013-06-26 20:01:00,56.0,51.0,-100.00,ESE,116,5.0,5.0,85,0.00,,,-99.99,,2013-06-27 04:01:00,
2013-06-26 20:22:00,56.0,51.0,-100.00,ESE,116,5.0,5.0,85,0.00,,,-99.99,,2013-06-27 04:22:00,
2013-06-26 20:30:00,61.0,52.0,-100.00,SSE,165,2.0,3.0,72,0.00,,,-99.99,,2013-06-27 04:30:00,
2013-06-26 20:52:00,61.0,52.0,-100.00,SSE,165,2.0,3.0,72,0.00,,,-99.99,,2013-06-27 04:52:00,
2013-06-26 21:02:00,61.0,52.0,-100.00,SSE,165,2.0,3.0,72,0.00,,,-99.99,,2013-06-27 05:02:00,
2013-06-26 21:12:00,61.0,52.0,-100.00,SSE,165,2.0,3.0,72,0.00,,,-99.99,,2013-06-27 05:12:00,
2013-06-26 21:21:00,61.0,52.0,-100.00,SSE,165,2.0,3.0,72,0.00,,,-99.99,,2013-06-27 05:21:00,
2013-06-26 21:30:00,59.0,52.0,-100.00,NW,304,1.0,4.0,78,0.00,,,-99.99,,2013-06-27 05:30:00,
2013-06-26 21:53:00,59.0,52.0,-100.00,NW,304,1.0,4.0,78,0.00,,,-99.99,,2013-06-27 05:53:00,
2013-06-26 22:01:00,59.0,52.0,-100.00,NW,304,1.0,4.0,78,0.00,,,-99.99,,2013-06-27 06:01:00,
2013-06-26 22:12:00,59.0,52.0,-100.00,NW,304,1.0,4.0,78,0.00,,,-99.99,,2013-06-27 06:12:00,
2013-06-26 22:22:00,59.0,52.0,-100.00,NW,304,1.0,4.0,78,0.00,,,-99.99,,2013-06-27 06:22:00,
2013-06-26 22:30:00,55.0,50.0,-100.00,West,280,10.0,14.0,85,0.00,,,-99.99,,2013-06-27 06:30:00,
2013-06-26 22:53:00,55.0,50.0,-100.00,West,280,10.0,14.0,85,0.00,,,-99.99,,2013-06-27 06:53:00,
2013-06-26 23:02:00,55.0,50.0,-100.00,West,280,10.0,14.0,85,0.00,,,-99.99,,2013-06-27 07:02:00,
2013-06-26 23:12:00,55.0,50.0,-100.00,West,280,10.0,14.0,85,0.00,,,-99.99,,2013-06-27 07:12:00,
2013-06-26 23:22:00,55.0,50.0,-100.00,West,280,10.0,14.0,85,0.00,,,-99.99,,2013-06-27 07:22:00,
2013-06-26 23:30:00,53.0,50.0,-100.00,West,261,9.0,14.0,90,0.00,,,-99.99,,2013-06-27 07:30:00,
2013-06-26 23:52:00,53.0,50.0,-100.00,West,261,9.0,14.0,90,0.00,,,-99.99,,2013-06-27 07:52:00,